Location: Mount Cross
(36.6390°N, 79.4878°W)
Time: 07:32:30
(UTC+00:00)

Tiros 1 - Pass Details

Date: 30 March 2023
Orbit: 627 x 661 km, 48.4° (Epoch: 02 June)

Event Time Altitude Azimuth Distance (km) Brightness Sun altitude
Exits shadow 08:53:16 56° 360° (N) 787 7.6 -26.5°
Drops below altitude 10° 08:57:29 10° 49° (NE) 2,077 10.7 -25.8°
Sets 08:59:52 0° 53° (NE) 2,991 11.9 -25.3°
